Regional Weather Roundup
Issued by NWS

Home | Current Version | Previous Version | Graphics & Text | Print | Product List | Glossary On
Versions: 1 2 3 4 5 6 7 8 9 10 11 12 13 14 15 16 17 18 19 20 21 22 23 24 25 26 27 28 29 30 31 32 33 34 35 36 37 38 39 40 41 42 43 44 45 46 47 48 49 50
000
ASUS45 KCYS 161710
RWRWY

WYOMING REGIONAL WEATHER ROUNDUP
NATIONAL WEATHER SERVICE CHEYENNE WY
1000 AM MST MON JAN 16 2017

NOTE:  "FAIR" INDICATES FEW OR NO CLOUDS BELOW 12,000 FEET
WITH NO SIGNIFICANT WEATHER AND/OR OBSTRUCTIONS TO VISIBILITY.

WYZ001-161800-
YELLOWSTONE NATIONAL PARK

CITY           SKY/WX    TMP DP  RH WIND       PRES   REMARKS
LK YELLOWSTONE   N/A    -11 -11 100 CALM      30.20S
W YELLOWSTONE  NOT AVBL

$$
WYZ002>013-054>058-071-098>099-161800-
NORTHERN WYOMING

CITY           SKY/WX    TMP DP  RH WIND       PRES   REMARKS
JACKSON        MOSUNNY  -11 -15  84 CALM      30.27R
CODY           FAIR      24   5  44 CALM      30.17R
GREYBULL       FAIR     -11 -16  78 CALM      30.27R
WORLAND        FLURRIES  -7  -9  91 CALM      30.24R
SHERIDAN       FAIR      19   5  54 S5        30.16S WCI  12
BUFFALO        FAIR      29   3  33 CALM      30.15R
GILLETTE       FAIR      27  10  49 NW6       30.15R WCI  20
HULETT         FAIR      23  10  58 S7        30.15R WCI  15
NEWCASTLE      FAIR      25   7  46 NW12      30.12R WCI  14

$$
WYZ014>020-022>026-101>103-161800-
CENTRAL WYOMING

CITY           SKY/WX    TMP DP  RH WIND       PRES   REMARKS
BIG PINEY      FAIR     -16 -19  87 CALM      30.20S
PINEDALE       FAIR     -11 -17  77 NW5       30.19S WCI -23
DUBOIS         NOT AVBL
LANDER         FAIR       3   1  91 SE5       30.18S WCI  -6
RIVERTON       FOG       -4  -5  95 CALM      30.20S VSB 3/4
CASPER         FAIR      20  13  74 W9        30.17R WCI   9
DOUGLAS        FAIR      26  12  55 NW15      30.16R WCI  14

$$
WYZ021-027>030-104>119-161800-
SOUTHERN WYOMING

CITY           SKY/WX    TMP DP  RH WIND       PRES   REMARKS
EVANSTON       CLOUDY     2   1  96 CALM      30.18R FOG
ROCK SPRINGS   HAZE      -6 -11  79 SW8       30.20R VSB 3/4 WCI -21
RAWLINS        FAIR       8   1  73 NW5       30.14R WCI   0
LARAMIE        CLOUDY    21  18  88 S3        30.08R
CHEYENNE       CLOUDY    32  14  47 N20       30.06R WCI  20
TORRINGTON     CLOUDY    36  14  40 NW10      30.10R WCI  28

$$



USA.gov is the U.S. government's official web portal to all federal, state and local government web resources and services.